STARLINK-4603 (53625 NORAD) Tracking and Keplerian Element Data

This shows tracking and keplerian element data for the satellite.

Feedback or suggestion? Click here.




ElementValue
Catalog53625
NameSTARLINK-4603
Epoch Orbit130
Epoch Day324.91667824
Epoch Year2022
RAAN242.3474
Inclination53.2148
Eccentricity0.0001783
Argument of Perigee51.1087
Mean Anonmoly108.5316
Mean Motion15.08837472
Decay Rate-0.00019553
L11 53625U 22104AP 22324.91667824 -.00019553 00000+0 -12138-2 0 9997
L22 53625 53.2148 242.3474 0001783 51.1087 108.5316 15.08837472 1306



Live tracking and technical data element details for STARLINK-4603 (NORAD 53625). STARLINK-4603 can be tracked NOW for your location showing map with azimuth and elevation plus other details from your city location.







IsCatalogInMostPopularTable: catalog: 53625, numindb: 3
Update: records affected: 1



GetName: 53625 STARLINK-4603

Hit Count: updated at: Thu, 08 Dec 2022 20:24:20 GMT